Погода в Талызино

Россия / Владимирская область     55°46′26″N   41°52′55″E
темп.,
°C
ветер,
м/с
пор.,
м/с
влажн.,
%
обл.,
%
осадки,
мм/ч
давл.,
гПа
погр.,
м
25 июля, вс
вс2500:00+15сз1156100 0.0 101715
03:00+14сз2259100 0.0 101821
06:00+14зсз2264100 0.0 101982
09:00+18зюз235046 0.0 1020605
12:00+22сз343384 0.0 10202648
15:00+21зсз453619 0.0 10201449
18:00+19зюз234645 0.0 102179
21:00+18юз224987 0.0 102118
26 июля, пн
пн2600:00+14зюз236362 0.0 102232
03:00+13з237186 0.0 102340
06:00+16зюз246350 0.0 1023129
09:00+21зюз244656 0.0 1023558
12:00+24з353574 0.0 10232287
15:00+24з353596 0.0 10212250
18:00+23зсз45424 0.0 10211173
21:00+17з335998 0.0 102126
27 июля, вт
вт2700:00+16з346216 0.0 102145
03:00+17з3957100 0.0 1021220
06:00+18з27645 0.0 1021209
09:00+23ссз34505 0.0 1021659
12:00+27ссз353623 0.0 10202478
15:00+25с354492 0.0 1019816
18:00+25ссз344788 0.0 1018514
21:00+20ссв356348 0.0 1019133
28 июля, ср
ср2800:00+15з119198 1.4 101915
03:00+15ююз118933 1.9 101810
06:00+17юв11856 0.2 101737
09:00+22юз11615 0.2 1016481
12:00+27зюз34410 0.0 10151501
15:00+25зюз3549100 0.1 1013321
18:00+21ююз3770100 0.7 1012130
21:00+19з1173100 0.9 101111
29 июля, чт
чт2900:00+17з2495100 2.1 1011121
03:00+17юв3898100 7.5 1009356
06:00+17юв4996100 2.9 1007505
09:00+17юв3698100 11.9 1006406
12:00+19зюз3591100 0.1 1005497
15:00+21з478676 0.9 1005803
18:00+20з599151 1.2 1005767
21:00+18з39964 1.6 1005315